Time,TemperatureF,DewpointF,PressureIn,WindDirection,WindDirectionDegrees,WindSpeedMPH,WindSpeedGustMPH,Humidity,HourlyPrecipIn,Conditions,Clouds,dailyrainin,SoftwareType,DateUTC
2013-10-29 08:49:00,72.1,67.3,30.12,NE,45,2.2,3.1,85,0.00,,,0.00,,2013-10-29 07:49:00,
2013-10-29 08:54:00,72.3,67.5,30.12,NE,45,0.8,3.1,85,0.00,,,0.00,,2013-10-29 07:54:00,
2013-10-29 08:59:00,72.9,67.6,30.12,NE,45,2.2,3.1,84,0.00,,,0.00,,2013-10-29 07:59:00,
2013-10-29 09:04:00,73.2,68.0,30.12,NE,45,1.3,3.1,84,0.00,,,0.00,,2013-10-29 08:04:00,
2013-10-29 09:09:00,73.8,68.2,30.09,East,90,2.2,2.6,83,0.00,,,0.00,,2013-10-29 08:09:00,
2013-10-29 09:14:00,73.9,68.0,30.09,East,90,2.6,0.0,82,0.00,,,0.00,,2013-10-29 08:14:00,
2013-10-29 09:19:00,73.9,68.0,30.12,East,90,3.1,5.8,82,0.00,,,0.00,,2013-10-29 08:19:00,
2013-10-29 09:24:00,74.5,68.5,30.12,NE,45,3.1,4.0,82,0.00,,,0.00,,2013-10-29 08:24:00,
2013-10-29 09:29:00,74.7,68.7,30.09,NE,45,3.5,3.5,82,0.00,,,0.00,,2013-10-29 08:29:00,
2013-10-29 09:34:00,75.0,68.7,30.09,NE,45,3.5,4.0,81,0.00,,,0.00,,2013-10-29 08:34:00,
2013-10-29 09:39:00,75.4,69.1,30.09,East,90,2.2,2.2,81,0.00,,,0.00,,2013-10-29 08:39:00,
2013-10-29 09:44:00,75.7,69.4,30.09,ENE,67,3.1,5.8,81,0.00,,,0.00,,2013-10-29 08:44:00,
2013-10-29 09:49:00,75.7,69.4,30.09,ENE,67,3.1,5.8,81,0.00,,,0.00,,2013-10-29 08:49:00,
2013-10-29 09:54:00,76.1,69.4,30.09,East,90,2.2,4.4,80,0.00,,,0.00,,2013-10-29 08:54:00,
2013-10-29 09:59:00,76.6,70.0,30.09,East,90,3.5,3.5,80,0.00,,,0.00,,2013-10-29 08:59:00,
2013-10-29 10:04:00,76.8,69.8,30.09,East,90,3.5,4.0,79,0.00,,,0.00,,2013-10-29 09:04:00,
2013-10-29 10:09:00,77.0,70.0,30.09,SE,135,6.2,6.2,79,0.00,,,0.00,,2013-10-29 09:09:00,
2013-10-29 10:14:00,77.4,70.2,30.09,SE,135,3.1,4.4,79,0.00,,,0.00,,2013-10-29 09:14:00,
2013-10-29 10:19:00,77.9,70.3,30.09,SE,135,4.9,4.9,78,0.00,,,0.00,,2013-10-29 09:19:00,
2013-10-29 10:24:00,77.9,70.3,30.09,East,90,2.6,5.8,78,0.00,,,0.00,,2013-10-29 09:24:00,
2013-10-29 10:29:00,78.3,70.7,30.09,SE,135,6.2,7.6,78,0.00,,,0.00,,2013-10-29 09:29:00,
2013-10-29 10:34:00,78.6,70.7,30.09,SE,135,4.4,4.4,77,0.00,,,0.00,,2013-10-29 09:34:00,
2013-10-29 10:39:00,78.8,70.5,30.09,East,90,3.1,3.1,76,0.00,,,0.00,,2013-10-29 09:39:00,
2013-10-29 10:44:00,78.8,70.5,30.09,East,90,5.8,8.0,76,0.00,,,0.00,,2013-10-29 09:44:00,
2013-10-29 10:49:00,78.8,70.2,30.06,SE,135,5.8,9.8,75,0.00,,,0.00,,2013-10-29 09:49:00,
2013-10-29 10:54:00,78.6,70.0,30.06,SE,135,6.2,6.2,75,0.00,,,0.00,,2013-10-29 09:54:00,
2013-10-29 10:59:00,79.2,70.9,30.09,East,90,3.1,4.0,76,0.00,,,0.00,,2013-10-29 09:59:00,
2013-10-29 11:04:00,79.2,70.5,30.09,SE,135,4.4,0.0,75,0.00,,,0.00,,2013-10-29 10:04:00,
2013-10-29 11:09:00,79.0,70.3,30.06,SE,135,3.5,9.8,75,0.00,,,0.00,,2013-10-29 10:09:00,
2013-10-29 11:14:00,78.6,70.0,30.06,SE,135,4.4,9.8,75,0.00,,,0.00,,2013-10-29 10:14:00,
2013-10-29 11:19:00,79.0,70.7,30.06,SE,135,2.6,9.8,76,0.00,,,0.00,,2013-10-29 10:19:00,
2013-10-29 11:24:00,78.8,70.2,30.06,SE,135,6.2,8.0,75,0.00,,,0.00,,2013-10-29 10:24:00,
2013-10-29 11:29:00,79.3,70.7,30.09,East,90,3.1,3.1,75,0.00,,,0.00,,2013-10-29 10:29:00,
2013-10-29 11:34:00,79.5,70.9,30.09,SE,135,4.4,5.3,75,0.00,,,0.00,,2013-10-29 10:34:00,
2013-10-29 11:39:00,79.3,70.2,30.09,SE,135,2.6,0.0,74,0.00,,,0.00,,2013-10-29 10:39:00,
2013-10-29 11:44:00,79.2,70.5,30.09,SE,135,4.4,4.4,75,0.00,,,0.00,,2013-10-29 10:44:00,
2013-10-29 11:49:00,79.2,70.5,30.06,SE,135,1.7,1.7,75,0.00,,,0.00,,2013-10-29 10:49:00,
2013-10-29 11:54:00,79.3,70.2,30.06,South,180,6.2,7.6,74,0.00,,,0.00,,2013-10-29 10:54:00,
2013-10-29 11:59:00,79.2,70.0,30.06,SE,135,5.3,5.8,74,0.00,,,0.00,,2013-10-29 10:59:00,
2013-10-29 12:04:00,79.5,70.3,30.06,SE,135,4.9,5.8,74,0.00,,,0.00,,2013-10-29 11:04:00,
2013-10-29 12:09:00,79.7,70.5,30.09,SE,135,2.2,0.0,74,0.00,,,0.00,,2013-10-29 11:09:00,
2013-10-29 12:14:00,79.7,70.2,30.09,SE,135,4.9,0.0,73,0.00,,,0.00,,2013-10-29 11:14:00,
2013-10-29 12:19:00,80.1,70.5,30.06,SE,135,3.1,5.3,73,0.00,,,0.00,,2013-10-29 11:19:00,
2013-10-29 12:24:00,80.1,70.2,30.06,SE,135,4.9,8.0,72,0.00,,,0.00,,2013-10-29 11:24:00,
2013-10-29 12:29:00,80.1,70.5,30.03,SE,135,5.8,8.0,73,0.00,,,0.00,,2013-10-29 11:29:00,
2013-10-29 12:34:00,80.4,70.9,30.03,South,180,4.9,8.5,73,0.00,,,0.00,,2013-10-29 11:34:00,
2013-10-29 12:39:00,80.4,70.5,30.06,SE,135,5.3,5.3,72,0.00,,,0.00,,2013-10-29 11:39:00,
2013-10-29 12:44:00,80.6,71.1,30.06,SE,135,3.1,4.9,73,0.00,,,0.00,,2013-10-29 11:44:00,
2013-10-29 12:49:00,80.6,70.7,30.03,SE,135,3.1,3.5,72,0.00,,,0.00,,2013-10-29 11:49:00,
2013-10-29 12:54:00,81.0,71.1,30.03,SSE,157,3.1,8.0,72,0.00,,,0.00,,2013-10-29 11:54:00,
2013-10-29 13:04:00,80.4,70.0,30.03,South,180,5.8,0.0,71,0.00,,,0.00,,2013-10-29 12:04:00,
2013-10-29 13:09:00,80.4,70.0,30.03,SE,135,4.9,8.9,71,0.00,,,0.00,,2013-10-29 12:09:00,
2013-10-29 13:14:00,80.6,70.7,30.03,South,180,6.7,10.2,72,0.00,,,0.00,,2013-10-29 12:14:00,
2013-10-29 13:19:00,80.8,70.9,30.06,SE,135,5.3,5.8,72,0.00,,,0.00,,2013-10-29 12:19:00,
2013-10-29 13:24:00,81.1,70.7,30.06,SE,135,3.1,0.0,71,0.00,,,0.00,,2013-10-29 12:24:00,
2013-10-29 13:29:00,81.3,70.9,30.03,SSE,157,4.9,7.6,71,0.00,,,0.00,,2013-10-29 12:29:00,
2013-10-29 13:39:00,81.1,70.7,30.03,South,180,4.9,4.9,71,0.00,,,0.00,,2013-10-29 12:39:00,
2013-10-29 13:44:00,81.0,70.5,30.03,SSE,157,6.7,8.0,71,0.00,,,0.00,,2013-10-29 12:44:00,
2013-10-29 13:54:00,80.8,70.3,30.06,SE,135,5.3,5.8,71,0.00,,,0.00,,2013-10-29 12:54:00,
2013-10-29 13:59:00,81.0,71.1,30.03,South,180,5.3,5.3,72,0.00,,,0.00,,2013-10-29 12:59:00,
2013-10-29 14:09:00,81.1,71.2,30.03,South,180,4.9,5.3,72,0.00,,,0.00,,2013-10-29 13:09:00,
2013-10-29 14:14:00,81.1,70.7,30.03,SSE,157,4.9,4.9,71,0.00,,,0.00,,2013-10-29 13:14:00,
2013-10-29 14:19:00,80.8,70.3,30.03,SSE,157,5.8,6.2,71,0.00,,,0.00,,2013-10-29 13:19:00,
2013-10-29 14:24:00,80.6,70.2,30.03,SE,135,4.9,0.0,71,0.00,,,0.00,,2013-10-29 13:24:00,
2013-10-29 14:29:00,80.8,70.9,30.03,SE,135,5.8,0.0,72,0.00,,,0.00,,2013-10-29 13:29:00,
2013-10-29 14:34:00,80.6,70.7,30.03,SE,135,5.3,0.0,72,0.00,,,0.00,,2013-10-29 13:34:00,
2013-10-29 14:39:00,80.6,70.7,30.03,SE,135,4.4,9.3,72,0.00,,,0.00,,2013-10-29 13:39:00,
2013-10-29 14:44:00,80.6,70.7,30.03,SE,135,4.4,5.8,72,0.00,,,0.00,,2013-10-29 13:44:00,
2013-10-29 14:49:00,80.4,70.5,30.03,SE,135,6.2,6.2,72,0.00,,,0.00,,2013-10-29 13:49:00,
2013-10-29 14:54:00,80.4,70.9,30.03,SE,135,4.9,4.9,73,0.00,,,0.00,,2013-10-29 13:54:00,
2013-10-29 14:59:00,80.2,70.7,30.00,South,180,7.6,10.2,73,0.00,,,0.00,,2013-10-29 13:59:00,
2013-10-29 15:04:00,80.4,70.9,30.00,SW,225,2.6,3.1,73,0.00,,,0.00,,2013-10-29 14:04:00,
2013-10-29 15:09:00,80.2,70.7,30.06,South,180,4.0,4.4,73,0.00,,,0.00,,2013-10-29 14:09:00,
2013-10-29 15:19:00,80.2,71.1,30.03,SE,135,1.3,4.4,74,0.00,,,0.00,,2013-10-29 14:19:00,
2013-10-29 15:24:00,80.4,70.9,30.03,SE,135,2.6,4.4,73,0.00,,,0.00,,2013-10-29 14:24:00,
2013-10-29 15:29:00,80.1,70.5,30.00,SE,135,2.2,4.9,73,0.00,,,0.00,,2013-10-29 14:29:00,
2013-10-29 15:34:00,79.9,70.3,30.00,South,180,4.0,4.0,73,0.00,,,0.00,,2013-10-29 14:34:00,
2013-10-29 15:39:00,79.9,70.7,30.03,SSE,157,1.7,3.5,74,0.00,,,0.00,,2013-10-29 14:39:00,
2013-10-29 15:44:00,80.1,70.9,30.03,SW,225,2.2,2.2,74,0.00,,,0.00,,2013-10-29 14:44:00,
2013-10-29 15:49:00,79.9,70.7,30.03,SE,135,3.5,4.0,74,0.00,,,0.00,,2013-10-29 14:49:00,
2013-10-29 15:54:00,79.7,70.5,30.03,South,180,3.5,3.5,74,0.00,,,0.00,,2013-10-29 14:54:00,
2013-10-29 15:59:00,79.7,71.1,30.00,South,180,1.7,1.7,75,0.00,,,0.00,,2013-10-29 14:59:00,
2013-10-29 16:04:00,79.9,71.2,30.00,South,180,1.3,1.3,75,0.00,,,0.00,,2013-10-29 15:04:00,
2013-10-29 16:09:00,79.9,71.2,30.03,SW,225,2.2,3.5,75,0.00,,,0.00,,2013-10-29 15:09:00,
2013-10-29 16:19:00,79.5,70.9,30.03,SW,225,2.2,3.1,75,0.00,,,0.00,,2013-10-29 15:19:00,
2013-10-29 16:24:00,79.3,71.1,30.03,SW,225,2.2,2.6,76,0.00,,,0.00,,2013-10-29 15:24:00,
2013-10-29 16:29:00,79.2,70.9,30.03,South,180,0.8,1.3,76,0.00,,,0.00,,2013-10-29 15:29:00,
2013-10-29 16:34:00,79.2,70.9,30.03,SW,225,0.8,2.2,76,0.00,,,0.00,,2013-10-29 15:34:00,
2013-10-29 16:39:00,79.0,70.7,30.00,SW,225,0.4,2.6,76,0.00,,,0.00,,2013-10-29 15:39:00,
2013-10-29 16:44:00,78.6,70.3,30.00,South,180,2.6,3.5,76,0.00,,,0.00,,2013-10-29 15:44:00,
2013-10-29 16:49:00,78.3,70.3,30.03,South,180,0.4,2.2,77,0.00,,,0.00,,2013-10-29 15:49:00,
2013-10-29 16:54:00,78.1,70.2,30.03,SW,225,0.4,0.0,77,0.00,,,0.00,,2013-10-29 15:54:00,
2013-10-29 16:59:00,77.9,70.0,30.03,SW,225,0.4,0.0,77,0.00,,,0.00,,2013-10-29 15:59:00,
2013-10-29 17:04:00,77.7,69.8,30.03,SW,225,0.4,0.0,77,0.00,,,0.00,,2013-10-29 16:04:00,
2013-10-29 17:09:00,77.5,69.6,30.03,SW,225,0.4,0.0,77,0.00,,,0.00,,2013-10-29 16:09:00,
2013-10-29 17:14:00,77.0,69.4,30.03,SW,225,2.2,3.1,78,0.00,,,0.00,,2013-10-29 16:14:00,
2013-10-29 17:19:00,76.6,69.3,30.00,SW,225,1.7,2.6,78,0.00,,,0.00,,2013-10-29 16:19:00,
2013-10-29 17:24:00,76.3,68.9,30.00,SW,225,1.7,2.6,78,0.00,,,0.00,,2013-10-29 16:24:00,
2013-10-29 17:29:00,75.9,68.9,30.03,SW,225,2.2,2.6,79,0.00,,,0.00,,2013-10-29 16:29:00,
2013-10-29 17:34:00,75.6,68.9,30.03,SW,225,0.8,2.6,80,0.00,,,0.00,,2013-10-29 16:34:00,
2013-10-29 17:39:00,75.4,68.7,30.03,SW,225,0.4,2.6,80,0.00,,,0.00,,2013-10-29 16:39:00,
2013-10-29 17:44:00,75.2,68.5,30.03,SW,225,0.8,1.7,80,0.00,,,0.00,,2013-10-29 16:44:00,
2013-10-29 17:49:00,75.0,68.4,30.03,SW,225,0.0,0.4,80,0.00,,,0.00,,2013-10-29 16:49:00,
2013-10-29 17:54:00,75.0,68.7,30.03,South,180,0.4,0.0,81,0.00,,,0.00,,2013-10-29 16:54:00,
2013-10-29 17:59:00,74.8,68.5,30.06,South,180,0.4,0.0,81,0.00,,,0.00,,2013-10-29 16:59:00,
2013-10-29 18:04:00,74.7,68.4,30.06,South,180,0.8,0.0,81,0.00,,,0.00,,2013-10-29 17:04:00,
2013-10-29 18:09:00,74.7,68.4,30.03,South,180,2.2,3.5,81,0.00,,,0.00,,2013-10-29 17:09:00,
2013-10-29 18:14:00,74.5,68.2,30.03,SE,135,0.8,2.2,81,0.00,,,0.00,,2013-10-29 17:14:00,
2013-10-29 18:19:00,74.5,68.5,30.00,South,180,0.8,0.8,82,0.00,,,0.00,,2013-10-29 17:19:00,
2013-10-29 18:24:00,74.3,68.4,30.00,South,180,2.2,3.1,82,0.00,,,0.00,,2013-10-29 17:24:00,
2013-10-29 18:29:00,74.1,68.2,30.03,South,180,1.3,2.6,82,0.00,,,0.00,,2013-10-29 17:29:00,
2013-10-29 18:34:00,74.1,68.2,30.03,South,180,0.4,0.0,82,0.00,,,0.00,,2013-10-29 17:34:00,
2013-10-29 18:39:00,74.1,68.2,30.03,South,180,0.0,0.0,82,0.00,,,0.00,,2013-10-29 17:39:00,
2013-10-29 18:44:00,73.9,68.0,30.03,South,180,0.0,0.4,82,0.00,,,0.00,,2013-10-29 17:44:00,
2013-10-29 18:49:00,73.9,68.0,30.03,South,180,0.0,0.4,82,0.00,,,0.00,,2013-10-29 17:49:00,
2013-10-29 18:54:00,73.8,67.8,30.03,South,180,0.0,0.0,82,0.00,,,0.00,,2013-10-29 17:54:00,
2013-10-29 18:59:00,73.8,67.8,30.03,South,180,1.3,1.3,82,0.00,,,0.00,,2013-10-29 17:59:00,
2013-10-29 19:04:00,73.8,68.2,30.03,South,180,0.8,1.3,83,0.00,,,0.00,,2013-10-29 18:04:00,
2013-10-29 19:09:00,73.6,68.0,30.03,South,180,0.4,1.3,83,0.00,,,0.00,,2013-10-29 18:09:00,
2013-10-29 19:14:00,73.6,68.0,30.03,South,180,0.4,0.0,83,0.00,,,0.00,,2013-10-29 18:14:00,
2013-10-29 19:19:00,73.6,68.0,30.00,South,180,0.0,0.0,83,0.00,,,0.00,,2013-10-29 18:19:00,
2013-10-29 19:29:00,73.2,67.6,30.03,South,180,0.0,0.0,83,0.00,,,0.00,,2013-10-29 18:29:00,
2013-10-29 19:34:00,73.2,67.6,30.03,South,180,0.0,0.0,83,0.00,,,0.00,,2013-10-29 18:34:00,
2013-10-29 19:39:00,73.0,67.5,30.00,South,180,0.0,0.0,83,0.00,,,0.00,,2013-10-29 18:39:00,
2013-10-29 19:44:00,73.0,67.8,30.00,South,180,0.0,0.0,84,0.00,,,0.00,,2013-10-29 18:44:00,
2013-10-29 19:49:00,73.0,67.8,30.03,South,180,0.0,0.0,84,0.00,,,0.00,,2013-10-29 18:49:00,
2013-10-29 19:54:00,72.9,67.6,30.03,South,180,0.0,0.0,84,0.00,,,0.00,,2013-10-29 18:54:00,
2013-10-29 19:59:00,72.9,67.6,30.03,South,180,0.0,0.0,84,0.00,,,0.00,,2013-10-29 18:59:00,
2013-10-29 20:04:00,72.7,67.5,30.03,South,180,0.0,0.0,84,0.00,,,0.00,,2013-10-29 19:04:00,
2013-10-29 20:09:00,72.7,67.5,30.03,South,180,0.0,0.0,84,0.00,,,0.00,,2013-10-29 19:09:00,
2013-10-29 20:14:00,72.7,67.5,30.03,South,180,0.0,0.0,84,0.00,,,0.00,,2013-10-29 19:14:00,
2013-10-29 20:19:00,72.5,67.3,30.03,South,180,0.0,0.0,84,0.00,,,0.00,,2013-10-29 19:19:00,
2013-10-29 20:24:00,72.5,67.3,30.03,South,180,0.0,0.0,84,0.00,,,0.00,,2013-10-29 19:24:00,
2013-10-29 20:29:00,72.5,67.3,30.03,South,180,0.0,0.0,84,0.00,,,0.00,,2013-10-29 19:29:00,
2013-10-29 20:34:00,72.5,67.6,30.03,South,180,0.0,0.0,85,0.00,,,0.00,,2013-10-29 19:34:00,
2013-10-29 20:39:00,72.5,67.6,30.03,South,180,0.0,0.0,85,0.00,,,0.00,,2013-10-29 19:39:00,
2013-10-29 20:44:00,72.5,67.6,30.03,South,180,0.0,0.0,85,0.00,,,0.00,,2013-10-29 19:44:00,
2013-10-29 20:49:00,72.5,67.3,30.03,South,180,0.0,0.0,84,0.00,,,0.00,,2013-10-29 19:49:00,
2013-10-29 20:54:00,72.3,67.5,30.03,South,180,0.0,0.0,85,0.00,,,0.00,,2013-10-29 19:54:00,
2013-10-29 20:59:00,72.3,67.5,30.03,SE,135,0.0,0.0,85,0.00,,,0.00,,2013-10-29 19:59:00,
2013-10-29 21:04:00,72.3,67.5,30.03,SE,135,0.4,1.3,85,0.00,,,0.00,,2013-10-29 20:04:00,
2013-10-29 21:09:00,72.1,67.3,30.03,SE,135,0.0,0.0,85,0.00,,,0.00,,2013-10-29 20:09:00,
2013-10-29 21:14:00,72.1,67.3,30.03,SE,135,0.0,0.0,85,0.00,,,0.00,,2013-10-29 20:14:00,
2013-10-29 21:19:00,72.0,67.1,30.00,SE,135,0.0,0.0,85,0.00,,,0.00,,2013-10-29 20:19:00,
2013-10-29 21:24:00,72.0,67.1,30.00,SE,135,0.0,0.0,85,0.00,,,0.00,,2013-10-29 20:24:00,
2013-10-29 21:29:00,71.8,66.9,30.03,SE,135,0.0,0.0,85,0.00,,,0.00,,2013-10-29 20:29:00,
2013-10-29 21:34:00,71.8,66.9,30.03,SE,135,0.0,0.0,85,0.00,,,0.00,,2013-10-29 20:34:00,
2013-10-29 21:39:00,71.8,66.9,30.03,SE,135,0.0,1.7,85,0.00,,,0.00,,2013-10-29 20:39:00,
2013-10-29 21:44:00,71.8,66.9,30.03,SE,135,0.0,0.0,85,0.00,,,0.00,,2013-10-29 20:44:00,
2013-10-29 21:49:00,71.6,66.7,30.03,SE,135,0.4,0.0,85,0.00,,,0.00,,2013-10-29 20:49:00,
2013-10-29 21:54:00,71.6,66.7,30.03,SE,135,1.3,0.0,85,0.00,,,0.00,,2013-10-29 20:54:00,
2013-10-29 21:59:00,71.6,67.1,30.03,SE,135,0.4,0.8,86,0.00,,,0.00,,2013-10-29 20:59:00,
2013-10-29 22:04:00,71.6,66.7,30.03,SE,135,0.4,1.3,85,0.00,,,0.00,,2013-10-29 21:04:00,
2013-10-29 22:09:00,71.6,67.1,30.03,SE,135,0.4,1.7,86,0.00,,,0.00,,2013-10-29 21:09:00,
2013-10-29 22:14:00,71.6,67.1,30.03,SE,135,1.3,2.2,86,0.00,,,0.00,,2013-10-29 21:14:00,
2013-10-29 22:19:00,71.6,67.1,30.03,SE,135,0.4,0.0,86,0.00,,,0.00,,2013-10-29 21:19:00,
2013-10-29 22:24:00,71.6,67.1,30.03,SE,135,1.3,1.7,86,0.00,,,0.00,,2013-10-29 21:24:00,
2013-10-29 22:29:00,71.6,67.1,30.03,SE,135,0.8,2.6,86,0.00,,,0.00,,2013-10-29 21:29:00,
2013-10-29 22:34:00,71.6,67.1,30.03,SE,135,0.8,2.6,86,0.00,,,0.00,,2013-10-29 21:34:00,
2013-10-29 22:39:00,71.6,67.1,30.03,East,90,0.8,1.3,86,0.00,,,0.00,,2013-10-29 21:39:00,
2013-10-29 22:44:00,71.6,67.1,30.03,East,90,1.3,0.0,86,0.00,,,0.00,,2013-10-29 21:44:00,
2013-10-29 22:49:00,71.6,67.1,30.03,East,90,0.4,0.0,86,0.00,,,0.00,,2013-10-29 21:49:00,
2013-10-29 22:54:00,71.6,67.1,30.03,East,90,1.7,1.7,86,0.00,,,0.00,,2013-10-29 21:54:00,
2013-10-29 22:59:00,71.6,67.1,30.03,East,90,1.3,1.7,86,0.00,,,0.00,,2013-10-29 21:59:00,
2013-10-29 23:04:00,71.4,66.9,30.03,East,90,0.4,0.8,86,0.00,,,0.00,,2013-10-29 22:04:00,
2013-10-29 23:09:00,71.4,66.9,30.03,East,90,1.3,2.2,86,0.00,,,0.00,,2013-10-29 22:09:00,
2013-10-29 23:14:00,71.6,67.1,30.03,East,90,0.0,0.4,86,0.00,,,0.00,,2013-10-29 22:14:00,
2013-10-29 23:19:00,71.6,67.1,30.03,East,90,0.4,0.0,86,0.00,,,0.00,,2013-10-29 22:19:00,
2013-10-29 23:24:00,71.6,67.1,30.03,East,90,0.8,2.2,86,0.00,,,0.00,,2013-10-29 22:24:00,
2013-10-29 23:29:00,71.6,67.1,30.03,East,90,1.3,2.2,86,0.00,,,0.00,,2013-10-29 22:29:00,
2013-10-29 23:34:00,71.6,67.1,30.03,East,90,0.8,2.2,86,0.00,,,0.00,,2013-10-29 22:34:00,
2013-10-29 23:39:00,71.6,67.1,30.03,SE,135,0.0,0.0,86,0.00,,,0.00,,2013-10-29 22:39:00,
2013-10-29 23:44:00,71.8,67.3,30.03,SE,135,0.0,0.0,86,0.00,,,0.00,,2013-10-29 22:44:00,
2013-10-29 23:49:00,71.8,67.3,30.06,SE,135,0.0,0.8,86,0.00,,,0.00,,2013-10-29 22:49:00,
2013-10-29 23:54:00,71.8,67.3,30.06,SE,135,0.8,2.2,86,0.00,,,0.00,,2013-10-29 22:54:00,
2013-10-29 23:59:00,71.8,67.3,30.06,NE,45,0.4,0.8,86,0.00,,,0.00,,2013-10-29 22:59:00,